Grafton, ND

7:00 PM CST on January 24, 2017 (GMT -0600)
Grafton Municipal

Weather History for KGAF - December, 2012

Change the Weather History Date:

Tuesday, December 4, 2012

  Actual Average Record
Temperature  
Mean Temperature 12 °F -  
Max Temperature 17 °F 26 °F 47 °F (1965)
Min Temperature 8 °F 9 °F -24 °F (1964)
Degree Days  
Heating Degree Days 52    
Moisture  
Dew Point 7 °F    
Average Humidity 77    
Maximum Humidity 92    
Minimum Humidity 67    
Precipitation  
Precipitation 0.00 in - - ()
Sea Level Pressure  
Sea Level Pressure 30.25 in    
Wind  
Wind Speed 14 mph (NNW)    
Max Wind Speed 21 mph    
Max Gust Speed 28 mph    
Visibility 10 miles    
Events      
Averages and records for this station are not official NWS values.
T = Trace of Precipitation, MM = Missing Value Source: NWS Daily Summary

Daily Weather History Graph

Daily Weather History Graph

Search for Another Location

Airport or City:

Trip Planner

Search our weather history database for the weather conditions in past years. The results will help you decide how hot, cold, wet, or windy it might be!

Date:

Astronomy

Dec. 04, 2012 Rise Set
Actual Time 8:04 AM CST 4:35 PM CST
Civil Twilight 7:27 AM CST 5:11 PM CST
Nautical Twilight 6:48 AM CST 5:51 PM CST
Astronomical Twilight 6:10 AM CST 6:29 PM CST
Moon 10:43 PM CST (12/4) 11:42 AM CST (12/4)
Length of Visible Light 9h 43m
Length of Day
8h 31m
Waning Gibbous, 69% of the Moon is Illuminated
Dec 4
Waning Gibbous
Dec 6
Last Quarter
Dec 13
New
Dec 19
First Quarter
Dec 28
Full

Hourly Weather History & Observations

Time (CST) Temp. Windchill Dew Point Humidity Pressure Visibility Wind Dir Wind Speed Gust Speed Precip Events Conditions
12:15 AM 12.2 °F -5.3 °F 5.0 °F 73% 29.97 in 10.0 mi NW 18.4 mph 26.5 mph N/A   Clear
12:35 AM 12.2 °F -6.3 °F 5.0 °F 73% 29.97 in 10.0 mi WNW 20.7 mph 27.6 mph N/A   Clear
12:55 AM 12.2 °F -4.8 °F 5.0 °F 73% 29.98 in 10.0 mi WNW 17.3 mph 21.9 mph N/A   Clear
1:15 AM 10.4 °F -8.2 °F 5.0 °F 79% 29.99 in 10.0 mi NW 19.6 mph - N/A   Partly Cloudy
1:35 AM 12.2 °F -5.8 °F 5.0 °F 73% 29.99 in 10.0 mi NW 19.6 mph 25.3 mph N/A   Scattered Clouds
1:55 AM 12.2 °F -4.8 °F 5.0 °F 73% 30.01 in 10.0 mi NW 17.3 mph 25.3 mph N/A   Overcast
2:15 AM 14.0 °F -3.9 °F 5.0 °F 67% 30.01 in 10.0 mi NW 20.7 mph 26.5 mph N/A   Overcast
2:55 AM 14.0 °F -3.0 °F 5.0 °F 67% 30.03 in 10.0 mi NW 18.4 mph 24.2 mph N/A   Overcast
3:15 AM 14.0 °F -2.5 °F 5.0 °F 67% 30.04 in 10.0 mi NW 17.3 mph 23.0 mph N/A   Overcast
3:35 AM 14.0 °F -2.0 °F 5.0 °F 67% 30.05 in 10.0 mi NW 16.1 mph 27.6 mph N/A   Overcast
3:55 AM 14.0 °F -3.0 °F 6.8 °F 73% 30.06 in 10.0 mi NW 18.4 mph 27.6 mph N/A   Overcast
4:15 AM 14.0 °F -2.5 °F 6.8 °F 73% 30.07 in 10.0 mi NW 17.3 mph 21.9 mph N/A   Overcast
4:35 AM 14.0 °F -2.5 °F 5.0 °F 67% 30.08 in 10.0 mi NW 17.3 mph 24.2 mph N/A   Overcast
4:55 AM 14.0 °F -2.0 °F 5.0 °F 67% 30.09 in 10.0 mi NW 16.1 mph 26.5 mph N/A   Mostly Cloudy
5:15 AM 14.0 °F -3.0 °F 5.0 °F 67% 30.10 in 10.0 mi NW 18.4 mph 24.2 mph N/A   Mostly Cloudy
5:35 AM 14.0 °F -2.0 °F 5.0 °F 67% 30.12 in 10.0 mi NW 16.1 mph 21.9 mph N/A   Mostly Cloudy
5:55 AM 12.2 °F -2.5 °F 5.0 °F 73% 30.13 in 10.0 mi NW 12.7 mph - N/A   Partly Cloudy
6:15 AM 12.2 °F -2.5 °F 5.0 °F 73% 30.14 in 10.0 mi NW 12.7 mph 21.9 mph N/A   Clear
6:35 AM 12.2 °F -3.1 °F 5.0 °F 73% 30.14 in 10.0 mi NW 13.8 mph - N/A   Clear
6:55 AM 10.4 °F -3.3 °F 5.0 °F 79% 30.15 in 10.0 mi NNW 10.4 mph - N/A   Clear
7:15 AM 10.4 °F -5.4 °F 5.0 °F 79% 30.16 in 10.0 mi NW 13.8 mph - N/A   Clear
7:35 AM 10.4 °F -4.8 °F 5.0 °F 79% 30.19 in 10.0 mi NW 12.7 mph - N/A   Clear
7:55 AM 10.4 °F -3.3 °F 5.0 °F 79% 30.20 in 10.0 mi NW 10.4 mph - N/A   Clear
8:15 AM 10.4 °F -2.4 °F 5.0 °F 79% 30.21 in 10.0 mi WNW 9.2 mph - N/A   Clear
8:35 AM 10.4 °F -4.1 °F 5.0 °F 79% 30.23 in 10.0 mi WNW 11.5 mph - N/A   Clear
8:55 AM 10.4 °F -4.1 °F 5.0 °F 79% 30.24 in 10.0 mi NW 11.5 mph - N/A   Clear
9:15 AM 10.4 °F -4.1 °F 5.0 °F 79% 30.24 in 10.0 mi NW 11.5 mph - N/A   Clear
9:35 AM 12.2 °F -3.1 °F 5.0 °F 73% 30.26 in 10.0 mi NW 13.8 mph - N/A   Clear
9:55 AM 12.2 °F -3.1 °F 5.0 °F 73% 30.26 in 10.0 mi NW 13.8 mph - N/A   Clear
10:15 AM 12.2 °F -3.7 °F 5.0 °F 73% 30.29 in 10.0 mi NNW 15.0 mph 18.4 mph N/A   Clear
10:35 AM 14.0 °F -1.4 °F 5.0 °F 67% 30.29 in 10.0 mi NNW 15.0 mph - N/A   Clear
10:55 AM 14.0 °F -2.0 °F 5.0 °F 67% 30.30 in 10.0 mi NW 16.1 mph 19.6 mph N/A   Clear
11:15 AM 14.0 °F -0.8 °F 6.8 °F 73% 30.31 in 10.0 mi NW 13.8 mph 18.4 mph N/A   Clear
11:35 AM 14.0 °F -0.8 °F 6.8 °F 73% 30.31 in 10.0 mi NW 13.8 mph - N/A   Clear
11:55 AM 15.8 °F 3.4 °F 6.8 °F 68% 30.31 in 10.0 mi NW 10.4 mph - N/A   Clear
12:15 PM 15.8 °F 3.4 °F 6.8 °F 68% 30.31 in 10.0 mi NNW 10.4 mph 17.3 mph N/A   Clear
12:35 PM 15.8 °F 2.7 °F 8.6 °F 73% 30.30 in 10.0 mi NW 11.5 mph - N/A   Clear
12:55 PM 17.6 °F 7.3 °F 8.6 °F 68% 30.30 in 10.0 mi NW 8.1 mph - N/A   Clear
1:15 PM 17.6 °F 5.0 °F 8.6 °F 68% 30.30 in 10.0 mi NNW 11.5 mph - N/A   Partly Cloudy
1:35 PM 17.6 °F 6.4 °F 8.6 °F 68% 30.31 in 10.0 mi North 9.2 mph - N/A   Clear
1:55 PM 17.6 °F 7.3 °F 8.6 °F 68% 30.31 in 10.0 mi NNW 8.1 mph - N/A   Clear
2:15 PM 17.6 °F 5.7 °F 8.6 °F 68% 30.31 in 10.0 mi North 10.4 mph - N/A   Clear
2:35 PM 17.6 °F 7.3 °F 8.6 °F 68% 30.32 in 10.0 mi North 8.1 mph - N/A   Clear
2:55 PM 17.6 °F 7.3 °F 10.4 °F 73% 30.32 in 10.0 mi NW 8.1 mph - N/A   Clear
3:15 PM 17.6 °F 8.2 °F 10.4 °F 73% 30.33 in 10.0 mi NNW 6.9 mph - N/A   Clear
3:35 PM 17.6 °F 9.3 °F 10.4 °F 73% 30.33 in 10.0 mi NNW 5.8 mph - N/A   Clear
3:55 PM 17.6 °F 10.7 °F 10.4 °F 73% 30.35 in 10.0 mi NW 4.6 mph - N/A   Partly Cloudy
4:15 PM 15.8 °F 6.1 °F 10.4 °F 79% 30.36 in 10.0 mi NW 6.9 mph - N/A   Scattered Clouds
4:35 PM 15.8 °F 7.2 °F 8.6 °F 73% 30.36 in 10.0 mi NNW 5.8 mph - N/A   Partly Cloudy
4:55 PM 14.0 °F 6.5 °F 10.4 °F 86% 30.37 in 10.0 mi North 4.6 mph - N/A   Clear
5:15 PM 14.0 °F 6.5 °F 8.6 °F 79% 30.37 in 10.0 mi NNE 4.6 mph - N/A   Clear
5:35 PM 14.0 °F 6.5 °F 8.6 °F 79% 30.36 in 10.0 mi NNE 4.6 mph - N/A   Clear
5:55 PM 12.2 °F 0.7 °F 8.6 °F 85% 30.36 in 10.0 mi NE 8.1 mph - N/A   Clear
6:15 PM 12.2 °F 0.7 °F 8.6 °F 85% 30.37 in 10.0 mi NE 8.1 mph - N/A   Clear
6:35 PM 12.2 °F -0.2 °F 8.6 °F 85% 30.36 in 10.0 mi NE 9.2 mph - N/A   Clear
6:55 PM 12.2 °F 1.7 °F 8.6 °F 85% 30.35 in 10.0 mi ENE 6.9 mph - N/A   Clear
7:15 PM 10.4 °F 0.8 °F 8.6 °F 92% 30.36 in 10.0 mi ENE 5.8 mph - N/A   Clear
7:35 PM 10.4 °F 2.2 °F 8.6 °F 92% 30.37 in 10.0 mi ENE 4.6 mph - N/A   Clear
7:55 PM 10.4 °F 0.8 °F 8.6 °F 92% 30.37 in 10.0 mi NE 5.8 mph - N/A   Clear
8:15 PM 10.4 °F 0.8 °F 6.8 °F 85% 30.37 in 10.0 mi ENE 5.8 mph - N/A   Clear
8:35 PM 10.4 °F 0.8 °F 6.8 °F 85% 30.36 in 10.0 mi East 5.8 mph - N/A   Clear
8:55 PM 10.4 °F 2.2 °F 6.8 °F 85% 30.37 in 10.0 mi East 4.6 mph - N/A   Clear
9:15 PM 10.4 °F 2.2 °F 6.8 °F 85% 30.37 in 10.0 mi ESE 4.6 mph - N/A   Clear
9:35 PM 10.4 °F 4.0 °F 6.8 °F 85% 30.38 in 10.0 mi SE 3.5 mph - N/A   Clear
9:55 PM 8.6 °F 0.1 °F 6.8 °F 92% 30.38 in 10.0 mi SSE 4.6 mph - N/A   Clear
10:15 PM 8.6 °F 0.1 °F 6.8 °F 92% 30.38 in 10.0 mi SE 4.6 mph - N/A   Clear
10:35 PM 8.6 °F 2.0 °F 6.8 °F 92% 30.39 in 10.0 mi SE 3.5 mph - N/A   Clear
10:55 PM 8.6 °F 2.0 °F 6.8 °F 92% 30.38 in 10.0 mi SE 3.5 mph - N/A   Clear
11:15 PM 10.4 °F 2.2 °F 8.6 °F 92% 30.37 in 10.0 mi SSE 4.6 mph - N/A   Clear
11:35 PM 12.2 °F 2.9 °F 8.6 °F 85% 30.37 in 10.0 mi SE 5.8 mph - N/A   Clear
11:55 PM 12.2 °F 0.7 °F 8.6 °F 85% 30.35 in 10.0 mi SE 8.1 mph - N/A   Clear